TimePST,TemperatureF,Dew PointF,Humidity,Sea Level PressureIn,VisibilityMPH,Wind Direction,Wind SpeedMPH,Gust SpeedMPH,PrecipitationIn,Events,Conditions,WindDirDegrees,DateUTC
12:56 AM,41.9,41.0,97,30.27,9.0,Calm,Calm,-,N/A,,Clear,0,2014-02-21 08:56:00
1:56 AM,41.0,39.9,96,30.27,10.0,NE,3.5,-,N/A,,Clear,50,2014-02-21 09:56:00
2:56 AM,39.9,39.9,100,30.26,10.0,Calm,Calm,-,N/A,,Clear,0,2014-02-21 10:56:00
3:56 AM,39.9,39.9,100,30.25,10.0,Calm,Calm,-,N/A,,Clear,0,2014-02-21 11:56:00
4:56 AM,39.9,39.9,100,30.25,10.0,Calm,Calm,-,N/A,,Clear,0,2014-02-21 12:56:00
5:56 AM,45.9,41.0,83,30.24,10.0,ENE,6.9,-,N/A,,Clear,60,2014-02-21 13:56:00
6:56 AM,41.0,39.9,96,30.24,10.0,Calm,Calm,-,N/A,,Clear,0,2014-02-21 14:56:00
7:56 AM,41.9,39.9,93,30.24,10.0,Calm,Calm,-,N/A,,Clear,0,2014-02-21 15:56:00
8:56 AM,47.8,43.0,83,30.25,9.0,Calm,Calm,-,N/A,,Clear,0,2014-02-21 16:56:00
9:56 AM,52.0,43.0,71,30.25,10.0,Calm,Calm,-,N/A,,Clear,0,2014-02-21 17:56:00
10:56 AM,54.0,43.9,69,30.24,10.0,SW,4.6,-,N/A,,Clear,230,2014-02-21 18:56:00
11:56 AM,52.0,45.0,77,30.22,5.0,WNW,3.5,-,N/A,,Haze,290,2014-02-21 19:56:00
12:56 PM,56.8,45.0,64,30.18,6.0,West,4.6,-,N/A,,Haze,280,2014-02-21 20:56:00
1:56 PM,61.0,43.9,53,30.15,9.0,NNW,6.9,-,N/A,,Clear,330,2014-02-21 21:56:00
2:56 PM,61.9,45.9,56,30.14,9.0,WNW,6.9,-,N/A,,Clear,300,2014-02-21 22:56:00
3:56 PM,61.0,47.8,62,30.13,7.0,NW,4.6,-,N/A,,Clear,320,2014-02-21 23:56:00
4:56 PM,63.0,41.0,45,30.12,10.0,NNW,5.8,-,N/A,,Clear,340,2014-02-22 00:56:00
5:56 PM,59.9,41.0,50,30.12,10.0,NE,4.6,-,N/A,,Clear,40,2014-02-22 01:56:00
6:56 PM,57.9,39.9,51,30.12,10.0,NE,9.2,-,N/A,,Clear,40,2014-02-22 02:56:00
7:56 PM,55.9,37.9,51,30.11,10.0,NE,9.2,-,N/A,,Clear,50,2014-02-22 03:56:00
8:56 PM,55.9,37.9,51,30.11,10.0,Variable,6.9,-,N/A,,Clear,0,2014-02-22 04:56:00
9:56 PM,54.9,36.9,51,30.11,10.0,Variable,6.9,-,N/A,,Clear,0,2014-02-22 05:56:00
10:56 PM,50.9,37.9,61,30.11,10.0,West,4.6,-,N/A,,Clear,260,2014-02-22 06:56:00
11:56 PM,43.9,38.8,82,30.12,10.0,Calm,Calm,-,N/A,,Clear,0,2014-02-22 07:56:00